LVHWA SABE-SAZN

Flight info

Callsign LVHWA
Flight time 1h 28m
Altitude 47000
Route PAL9 TORUL UT654 BIXIM UT669 ROPON ROPON3Q
Aircraft C750/M-SBDE3FGHRWXY/S

Departure

Time 2026-04-19 23:11
Airport Aeroparque Jorge Newbery (SABE)

Arrival

Time 2026-04-20 00:39
Airport Presidente Perón International Airport (SAZN)
Time Latitude Longitude Altitude Speed Heading
2026-04-19 22:53 -34.56392 -58.41028 22 ft 0 kts 34°
2026-04-19 23:06 -34.56390 -58.41028 22 ft 0 kts 15°
2026-04-19 23:07 -34.56387 -58.41032 22 ft 0 kts 304°
2026-04-19 23:07 -34.56400 -58.41048 -4 ft 12 kts 227°
2026-04-19 23:07 -34.56373 -58.41152 22 ft 16 kts 315°
2026-04-19 23:07 -34.56304 -58.41285 24 ft 23 kts 306°
2026-04-19 23:08 -34.56230 -58.41411 23 ft 16 kts 303°
2026-04-19 23:08 -34.56193 -58.41478 22 ft 10 kts 317°
2026-04-19 23:08 -34.56138 -58.41461 22 ft 0 kts 35°
2026-04-19 23:08 -34.56061 -58.41398 22 ft 25 kts 32°
2026-04-19 23:09 -34.55943 -58.41305 22 ft 15 kts 19°
2026-04-19 23:09 -34.55894 -58.41375 22 ft 16 kts 295°
2026-04-19 23:09 -34.55829 -58.41527 24 ft 23 kts 297°
2026-04-19 23:09 -34.55773 -58.41658 24 ft 14 kts 297°
2026-04-19 23:10 -34.55705 -58.41812 22 ft 18 kts 304°
2026-04-19 23:10 -34.55679 -58.41890 22 ft 11 kts 240°
2026-04-19 23:10 -34.55734 -58.41934 21 ft 1 kts 170°
2026-04-19 23:10 -34.55885 -58.41649 21 ft 97 kts 125°
2026-04-19 23:11 -34.56380 -58.40745 340 ft 137 kts 127°
2026-04-19 23:11 -34.56957 -58.39763 1015 ft 148 kts 121°
2026-04-19 23:11 -34.57236 -58.38538 1696 ft 159 kts 97°
2026-04-19 23:11 -34.57030 -58.37170 2326 ft 178 kts 70°
2026-04-19 23:12 -34.56406 -58.35777 2887 ft 199 kts 66°
2026-04-19 23:12 -34.55820 -58.34168 3593 ft 216 kts 66°
2026-04-19 23:12 -34.54883 -58.32757 4616 ft 222 kts 39°
2026-04-19 23:12 -34.53417 -58.31928 5299 ft 241 kts 13°
2026-04-19 23:13 -34.51688 -58.31836 5989 ft 257 kts 350°
2026-04-19 23:13 -34.50017 -58.32607 6882 ft 259 kts 328°
2026-04-19 23:13 -34.48739 -58.34161 7647 ft 271 kts 304°
2026-04-19 23:13 -34.48032 -58.36266 8329 ft 270 kts 279°
2026-04-19 23:14 -34.48200 -58.38579 9034 ft 285 kts 256°
2026-04-19 23:14 -34.49081 -58.40654 9932 ft 278 kts 233°
2026-04-19 23:14 -34.50602 -58.42201 10554 ft 295 kts 212°
2026-04-19 23:14 -34.52529 -58.43234 11135 ft 311 kts 202°
2026-04-19 23:15 -34.54659 -58.44001 11705 ft 324 kts 200°
2026-04-19 23:15 -34.56044 -58.44730 12073 ft 330 kts 212°
2026-04-19 23:15 -34.57854 -58.46443 12666 ft 334 kts 229°
2026-04-19 23:15 -34.59386 -58.48604 13329 ft 340 kts 234°
2026-04-19 23:16 -34.60929 -58.50819 13962 ft 347 kts 232°
2026-04-19 23:16 -34.63251 -58.53598 14789 ft 356 kts 227°
2026-04-19 23:16 -34.65059 -58.55684 15434 ft 360 kts 229°
2026-04-19 23:16 -34.66249 -58.57154 15908 ft 362 kts 230°
2026-04-19 23:17 -34.67982 -58.59355 16583 ft 366 kts 230°
2026-04-19 23:17 -34.69781 -58.61575 17288 ft 370 kts 229°
2026-04-19 23:17 -34.71620 -58.63793 18020 ft 374 kts 229°
2026-04-19 23:17 -34.73470 -58.66055 18714 ft 377 kts 230°
2026-04-19 23:18 -34.75319 -58.68346 19390 ft 380 kts 230°
2026-04-19 23:18 -34.77191 -58.70655 20090 ft 384 kts 230°
2026-04-19 23:18 -34.79054 -58.72938 20802 ft 386 kts 230°
2026-04-19 23:18 -34.80951 -58.75270 21535 ft 388 kts 230°
2026-04-19 23:19 -34.82858 -58.77625 22251 ft 392 kts 230°
2026-04-19 23:19 -34.84785 -58.80003 22973 ft 394 kts 230°
2026-04-19 23:19 -34.86718 -58.82387 23699 ft 397 kts 230°
2026-04-19 23:19 -34.88662 -58.84786 24316 ft 398 kts 231°
2026-04-19 23:20 -34.90588 -58.87168 24947 ft 399 kts 231°
2026-04-19 23:20 -34.92540 -58.89581 25608 ft 400 kts 231°
2026-04-19 23:20 -34.94501 -58.92008 26275 ft 401 kts 231°
2026-04-19 23:20 -34.96461 -58.94435 26958 ft 401 kts 231°
2026-04-19 23:21 -34.98425 -58.96871 27532 ft 405 kts 231°
2026-04-19 23:21 -35.00413 -58.99342 27981 ft 412 kts 231°
2026-04-19 23:21 -35.02439 -59.01858 28412 ft 418 kts 231°
2026-04-19 23:21 -35.04490 -59.04402 28861 ft 424 kts 231°
2026-04-19 23:22 -35.06550 -59.06961 29315 ft 428 kts 232°
2026-04-19 23:22 -35.08648 -59.09573 29806 ft 432 kts 232°
2026-04-19 23:22 -35.10768 -59.12213 30262 ft 436 kts 232°
2026-04-19 23:22 -35.12904 -59.14873 30693 ft 439 kts 232°
2026-04-19 23:23 -35.15021 -59.17511 31117 ft 439 kts 232°
2026-04-19 23:23 -35.17164 -59.20183 31567 ft 439 kts 232°
2026-04-19 23:23 -35.19305 -59.22860 32000 ft 440 kts 232°
2026-04-19 23:23 -35.21441 -59.25529 32424 ft 437 kts 232°
2026-04-19 23:24 -35.23562 -59.28179 32846 ft 435 kts 233°
2026-04-19 23:24 -35.25670 -59.30819 33265 ft 432 kts 233°
2026-04-19 23:24 -35.27751 -59.33429 33628 ft 433 kts 233°
2026-04-19 23:24 -35.29853 -59.36068 33951 ft 432 kts 233°
2026-04-19 23:25 -35.31910 -59.38644 34237 ft 430 kts 233°
2026-04-19 23:25 -35.34001 -59.41268 34514 ft 428 kts 233°
2026-04-19 23:25 -35.36039 -59.43912 34773 ft 422 kts 237°
2026-04-19 23:25 -35.37769 -59.46722 35017 ft 416 kts 242°
2026-04-19 23:26 -35.39444 -59.49609 35286 ft 415 kts 242°
2026-04-19 23:26 -35.41137 -59.52476 35549 ft 414 kts 242°
2026-04-19 23:26 -35.42823 -59.55333 35806 ft 412 kts 242°
2026-04-19 23:26 -35.44493 -59.58197 36058 ft 410 kts 242°
2026-04-19 23:27 -35.46146 -59.61036 36330 ft 409 kts 243°
2026-04-19 23:27 -35.47705 -59.63704 36566 ft 408 kts 243°
2026-04-19 23:27 -35.49364 -59.66541 36811 ft 407 kts 243°
2026-04-19 23:27 -35.50992 -59.69331 37051 ft 406 kts 243°
2026-04-19 23:28 -35.52633 -59.72149 37331 ft 404 kts 243°
2026-04-19 23:28 -35.54261 -59.74945 37555 ft 401 kts 243°
2026-04-19 23:28 -35.55878 -59.77723 37780 ft 399 kts 243°
2026-04-19 23:28 -35.57487 -59.80492 38000 ft 398 kts 244°
2026-04-19 23:29 -35.59092 -59.83258 38218 ft 397 kts 244°
2026-04-19 23:29 -35.60694 -59.86019 38433 ft 396 kts 244°
2026-04-19 23:29 -35.62293 -59.88774 38661 ft 395 kts 244°
2026-04-19 23:29 -35.63890 -59.91530 38830 ft 395 kts 244°
2026-04-19 23:30 -35.65465 -59.94254 38986 ft 396 kts 244°
2026-04-19 23:30 -35.67060 -59.97010 39156 ft 396 kts 244°
2026-04-19 23:30 -35.68665 -59.99785 39316 ft 396 kts 244°
2026-04-19 23:30 -35.70262 -60.02548 39470 ft 396 kts 244°
2026-04-19 23:31 -35.71861 -60.05319 39621 ft 396 kts 244°
2026-04-19 23:31 -35.73460 -60.08093 39775 ft 397 kts 243°
2026-04-19 23:31 -35.75046 -60.10846 39919 ft 397 kts 243°
2026-04-19 23:31 -35.76648 -60.13627 40062 ft 397 kts 243°
2026-04-19 23:32 -35.78246 -60.16405 40201 ft 397 kts 243°
2026-04-19 23:32 -35.79849 -60.19194 40359 ft 398 kts 243°
2026-04-19 23:32 -35.81452 -60.21986 40492 ft 399 kts 243°
2026-04-19 23:32 -35.83035 -60.24743 40622 ft 399 kts 243°
2026-04-19 23:33 -35.84639 -60.27537 40750 ft 398 kts 243°
2026-04-19 23:33 -35.86241 -60.30331 40955 ft 397 kts 243°
2026-04-19 23:33 -35.87832 -60.33114 41150 ft 398 kts 243°
2026-04-19 23:33 -35.89430 -60.35911 41347 ft 399 kts 243°
2026-04-19 23:34 -35.91030 -60.38706 41583 ft 398 kts 243°
2026-04-19 23:34 -35.92628 -60.41502 41810 ft 399 kts 243°
2026-04-19 23:34 -35.94224 -60.44301 42061 ft 399 kts 243°
2026-04-19 23:34 -35.95809 -60.47080 42307 ft 399 kts 243°
2026-04-19 23:35 -35.97410 -60.49888 42486 ft 400 kts 243°
2026-04-19 23:35 -35.99008 -60.52696 42653 ft 400 kts 243°
2026-04-19 23:35 -36.00608 -60.55508 42816 ft 399 kts 243°
2026-04-19 23:35 -36.02203 -60.58313 42970 ft 399 kts 243°
2026-04-19 23:36 -36.03797 -60.61121 43128 ft 399 kts 243°
2026-04-19 23:36 -36.05383 -60.63913 43514 ft 394 kts 242°
2026-04-19 23:36 -36.06937 -60.66654 43864 ft 395 kts 242°
2026-04-19 23:36 -36.08517 -60.69448 44199 ft 396 kts 242°
2026-04-19 23:37 -36.10100 -60.72245 44535 ft 398 kts 242°
2026-04-19 23:37 -36.11692 -60.75057 44839 ft 399 kts 242°
2026-04-19 23:37 -36.13285 -60.77875 45135 ft 399 kts 242°
2026-04-19 23:37 -36.14875 -60.80709 45397 ft 400 kts 242°
2026-04-19 23:38 -36.16441 -60.83514 45646 ft 400 kts 242°
2026-04-19 23:38 -36.18029 -60.86350 45889 ft 400 kts 242°
2026-04-19 23:38 -36.19620 -60.89188 46127 ft 400 kts 242°
2026-04-19 23:38 -36.21205 -60.92023 46350 ft 399 kts 242°
2026-04-19 23:39 -36.22767 -60.94821 46561 ft 399 kts 242°
2026-04-19 23:39 -36.24345 -60.97650 46766 ft 399 kts 242°
2026-04-19 23:39 -36.25930 -61.00490 46966 ft 399 kts 242°
2026-04-19 23:39 -36.27512 -61.03329 47156 ft 400 kts 242°
2026-04-19 23:40 -36.29092 -61.06167 47351 ft 400 kts 243°
2026-04-19 23:40 -36.30665 -61.08999 47330 ft 406 kts 243°
2026-04-19 23:40 -36.33911 -61.14844 47360 ft 416 kts 242°
2026-04-19 23:41 -36.37153 -61.20674 47291 ft 410 kts 243°
2026-04-19 23:41 -36.40434 -61.26623 47279 ft 421 kts 243°
2026-04-19 23:42 -36.43790 -61.32688 47280 ft 431 kts 242°
2026-04-19 23:42 -36.47197 -61.38872 47278 ft 439 kts 242°
2026-04-19 23:43 -36.50665 -61.45164 47282 ft 439 kts 242°
2026-04-19 23:43 -36.54102 -61.51425 47285 ft 437 kts 243°
2026-04-19 23:44 -36.57520 -61.57658 47290 ft 438 kts 243°
2026-04-19 23:44 -36.60956 -61.63935 47291 ft 438 kts 243°
2026-04-19 23:45 -36.64368 -61.70180 47286 ft 438 kts 243°
2026-04-19 23:45 -36.67792 -61.76460 47291 ft 438 kts 243°
2026-04-19 23:46 -36.71214 -61.82746 47297 ft 438 kts 243°
2026-04-19 23:46 -36.74621 -61.89018 47296 ft 438 kts 243°
2026-04-19 23:47 -36.78051 -61.95346 47295 ft 440 kts 243°
2026-04-19 23:47 -36.81463 -62.01648 47296 ft 441 kts 243°
2026-04-19 23:48 -36.84902 -62.08012 47306 ft 441 kts 243°
2026-04-19 23:48 -36.88334 -62.14378 47306 ft 441 kts 243°
2026-04-19 23:49 -36.91748 -62.20719 47307 ft 441 kts 243°
2026-04-19 23:49 -36.95179 -62.27108 47301 ft 442 kts 243°
2026-04-19 23:50 -36.98610 -62.33505 47303 ft 442 kts 243°
2026-04-19 23:50 -37.02011 -62.39860 47306 ft 442 kts 243°
2026-04-19 23:51 -37.05437 -62.46275 47310 ft 442 kts 243°
2026-04-19 23:51 -37.08834 -62.52645 47333 ft 442 kts 243°
2026-04-19 23:52 -37.12260 -62.59086 47308 ft 443 kts 243°
2026-04-19 23:52 -37.15660 -62.65486 47310 ft 443 kts 243°
2026-04-19 23:53 -37.19081 -62.71941 47317 ft 443 kts 244°
2026-04-19 23:53 -37.22487 -62.78377 47318 ft 442 kts 244°
2026-04-19 23:54 -37.25870 -62.84786 47318 ft 444 kts 244°
2026-04-19 23:54 -37.29291 -62.91273 47319 ft 443 kts 244°
2026-04-19 23:55 -37.32694 -62.97746 47320 ft 443 kts 244°
2026-04-19 23:55 -37.35767 -63.04349 47320 ft 435 kts 251°
2026-04-19 23:56 -37.38371 -63.11236 47335 ft 437 kts 251°
2026-04-19 23:56 -37.40989 -63.18131 47329 ft 435 kts 251°
2026-04-19 23:57 -37.43579 -63.25008 47325 ft 435 kts 251°
2026-04-19 23:57 -37.46172 -63.31882 47331 ft 436 kts 251°
2026-04-19 23:58 -37.48769 -63.38791 47337 ft 435 kts 251°
2026-04-19 23:58 -37.50925 -63.44540 47352 ft 436 kts 251°
2026-04-19 23:59 -37.53905 -63.52495 47329 ft 429 kts 251°
2026-04-19 23:59 -37.56018 -63.58164 47332 ft 430 kts 251°
2026-04-20 00:00 -37.58569 -63.65004 47336 ft 431 kts 251°
2026-04-20 00:00 -37.61114 -63.71850 47336 ft 430 kts 251°
2026-04-20 00:01 -37.63652 -63.78690 47342 ft 430 kts 251°
2026-04-20 00:02 -37.67416 -63.88866 47344 ft 430 kts 251°
2026-04-20 00:02 -37.69969 -63.95780 47339 ft 429 kts 251°
2026-04-20 00:03 -37.72477 -64.02597 47335 ft 429 kts 252°
2026-04-20 00:03 -37.75005 -64.09482 47347 ft 431 kts 252°
2026-04-20 00:04 -37.77500 -64.16282 47349 ft 429 kts 252°
2026-04-20 00:04 -37.80003 -64.23136 47348 ft 430 kts 252°
2026-04-20 00:05 -37.82510 -64.30002 47350 ft 430 kts 252°
2026-04-20 00:05 -37.85013 -64.36881 47360 ft 429 kts 252°
2026-04-20 00:06 -37.87492 -64.43704 47341 ft 428 kts 252°
2026-04-20 00:06 -37.89980 -64.50574 47344 ft 429 kts 252°
2026-04-20 00:07 -37.92469 -64.57455 47347 ft 429 kts 252°
2026-04-20 00:07 -37.94946 -64.64325 47348 ft 429 kts 252°
2026-04-20 00:08 -37.97424 -64.71209 47343 ft 429 kts 252°
2026-04-20 00:08 -37.99883 -64.78058 47340 ft 429 kts 252°
2026-04-20 00:09 -38.02351 -64.84950 47341 ft 429 kts 252°
2026-04-20 00:09 -38.04817 -64.91848 47341 ft 429 kts 252°
2026-04-20 00:10 -38.07278 -64.98752 47358 ft 429 kts 252°
2026-04-20 00:10 -38.09736 -65.05660 47337 ft 429 kts 252°
2026-04-20 00:11 -38.12188 -65.12570 47338 ft 429 kts 253°
2026-04-20 00:11 -38.14628 -65.19458 47337 ft 430 kts 253°
2026-04-20 00:11 -38.15847 -65.22903 47027 ft 425 kts 253°
2026-04-20 00:12 -38.17053 -65.26313 46462 ft 420 kts 253°
2026-04-20 00:12 -38.18253 -65.29713 45901 ft 412 kts 253°
2026-04-20 00:12 -38.19392 -65.32948 45366 ft 404 kts 253°
2026-04-20 00:12 -38.20533 -65.36190 44837 ft 396 kts 253°
2026-04-20 00:13 -38.21646 -65.39358 44289 ft 389 kts 253°
2026-04-20 00:13 -38.22741 -65.42476 43783 ft 383 kts 254°
2026-04-20 00:13 -38.23812 -65.45536 43286 ft 381 kts 254°
2026-04-20 00:13 -38.24896 -65.48638 42782 ft 383 kts 254°
2026-04-20 00:14 -38.25985 -65.51758 42274 ft 388 kts 255°
2026-04-20 00:14 -38.27094 -65.54929 41758 ft 394 kts 255°
2026-04-20 00:14 -38.28198 -65.58084 41246 ft 397 kts 255°
2026-04-20 00:14 -38.29342 -65.61355 40720 ft 398 kts 255°
2026-04-20 00:15 -38.30466 -65.64578 40181 ft 398 kts 255°
2026-04-20 00:15 -38.31575 -65.67764 39658 ft 398 kts 255°
2026-04-20 00:15 -38.32697 -65.70992 39134 ft 397 kts 255°
2026-04-20 00:15 -38.33815 -65.74209 38567 ft 397 kts 256°
2026-04-20 00:16 -38.34928 -65.77417 38039 ft 395 kts 256°
2026-04-20 00:16 -38.36041 -65.80630 37517 ft 396 kts 256°
2026-04-20 00:16 -38.37156 -65.83856 36994 ft 398 kts 256°
2026-04-20 00:16 -38.38258 -65.87042 36476 ft 399 kts 255°
2026-04-20 00:17 -38.39394 -65.90325 35942 ft 400 kts 255°
2026-04-20 00:17 -38.40503 -65.93537 35444 ft 401 kts 256°
2026-04-20 00:17 -38.41626 -65.96796 34888 ft 402 kts 256°
2026-04-20 00:17 -38.42758 -66.00048 34352 ft 403 kts 255°
2026-04-20 00:18 -38.43901 -66.03316 33798 ft 402 kts 255°
2026-04-20 00:18 -38.45036 -66.06581 33259 ft 403 kts 256°
2026-04-20 00:18 -38.46170 -66.09863 32739 ft 406 kts 256°
2026-04-20 00:18 -38.47312 -66.13168 32189 ft 408 kts 255°
2026-04-20 00:19 -38.48465 -66.16491 31649 ft 411 kts 255°
2026-04-20 00:19 -38.49627 -66.19843 31104 ft 412 kts 255°
2026-04-20 00:19 -38.50786 -66.23205 30559 ft 415 kts 255°
2026-04-20 00:19 -38.51950 -66.26576 29985 ft 413 kts 255°
2026-04-20 00:20 -38.53103 -66.29907 29424 ft 406 kts 255°
2026-04-20 00:20 -38.54221 -66.33155 28900 ft 404 kts 255°
2026-04-20 00:20 -38.55343 -66.36433 28369 ft 401 kts 255°
2026-04-20 00:20 -38.56461 -66.39690 27841 ft 399 kts 255°
2026-04-20 00:21 -38.57574 -66.42930 27321 ft 397 kts 255°
2026-04-20 00:21 -38.58679 -66.46153 26795 ft 394 kts 255°
2026-04-20 00:21 -38.59777 -66.49358 26281 ft 392 kts 255°
2026-04-20 00:21 -38.60866 -66.52544 25761 ft 390 kts 255°
2026-04-20 00:22 -38.61949 -66.55712 25255 ft 388 kts 255°
2026-04-20 00:22 -38.63031 -66.58881 24739 ft 387 kts 255°
2026-04-20 00:22 -38.64101 -66.62016 24232 ft 383 kts 255°
2026-04-20 00:22 -38.65165 -66.65139 23723 ft 381 kts 256°
2026-04-20 00:23 -38.66219 -66.68240 23176 ft 379 kts 255°
2026-04-20 00:23 -38.67265 -66.71316 22668 ft 375 kts 255°
2026-04-20 00:23 -38.68301 -66.74370 22186 ft 373 kts 255°
2026-04-20 00:23 -38.69334 -66.77418 21693 ft 371 kts 254°
2026-04-20 00:24 -38.70346 -66.80401 21214 ft 369 kts 254°
2026-04-20 00:24 -38.71361 -66.83398 20728 ft 366 kts 253°
2026-04-20 00:24 -38.72370 -66.86383 20239 ft 364 kts 253°
2026-04-20 00:24 -38.73371 -66.89348 19772 ft 361 kts 252°
2026-04-20 00:25 -38.74364 -66.92292 19293 ft 359 kts 252°
2026-04-20 00:25 -38.75353 -66.95222 18820 ft 356 kts 252°
2026-04-20 00:25 -38.76333 -66.98132 18342 ft 353 kts 251°
2026-04-20 00:25 -38.77301 -67.01010 17848 ft 351 kts 251°
2026-04-20 00:26 -38.78265 -67.03880 17385 ft 350 kts 251°
2026-04-20 00:26 -38.79214 -67.06708 16929 ft 349 kts 251°
2026-04-20 00:26 -38.80171 -67.09560 16470 ft 348 kts 251°
2026-04-20 00:26 -38.81132 -67.12426 16009 ft 347 kts 251°
2026-04-20 00:27 -38.82083 -67.15269 15554 ft 347 kts 250°
2026-04-20 00:27 -38.83029 -67.18098 15098 ft 345 kts 250°
2026-04-20 00:27 -38.83979 -67.20940 14641 ft 345 kts 250°
2026-04-20 00:27 -38.84923 -67.23766 14193 ft 344 kts 250°
2026-04-20 00:28 -38.85862 -67.26586 13718 ft 343 kts 250°
2026-04-20 00:28 -38.86795 -67.29383 13245 ft 340 kts 250°
2026-04-20 00:28 -38.87724 -67.32173 12800 ft 339 kts 250°
2026-04-20 00:28 -38.88648 -67.34955 12356 ft 338 kts 250°
2026-04-20 00:29 -38.89561 -67.37704 11912 ft 338 kts 250°
2026-04-20 00:29 -38.90473 -67.40453 11472 ft 336 kts 250°
2026-04-20 00:29 -38.91389 -67.43211 11024 ft 325 kts 250°
2026-04-20 00:29 -38.92252 -67.45801 10607 ft 305 kts 250°
2026-04-20 00:30 -38.93021 -67.48121 10240 ft 286 kts 250°
2026-04-20 00:30 -38.93770 -67.50425 9850 ft 272 kts 252°
2026-04-20 00:30 -38.94073 -67.52736 9462 ft 264 kts 271°
2026-04-20 00:30 -38.94091 -67.55099 9154 ft 265 kts 271°
2026-04-20 00:31 -38.94136 -67.57492 8809 ft 270 kts 270°
2026-04-20 00:31 -38.94188 -67.59918 8450 ft 272 kts 270°
2026-04-20 00:31 -38.94232 -67.62359 8087 ft 273 kts 270°
2026-04-20 00:31 -38.94272 -67.64795 7726 ft 272 kts 270°
2026-04-20 00:32 -38.94314 -67.67221 7367 ft 271 kts 270°
2026-04-20 00:32 -38.94355 -67.69613 7012 ft 270 kts 270°
2026-04-20 00:32 -38.94396 -67.72031 6654 ft 270 kts 270°
2026-04-20 00:32 -38.94434 -67.74310 6303 ft 266 kts 270°
2026-04-20 00:33 -38.94473 -67.76649 5947 ft 255 kts 270°
2026-04-20 00:33 -38.94510 -67.78855 5614 ft 245 kts 270°
2026-04-20 00:33 -38.94545 -67.81004 5293 ft 237 kts 269°
2026-04-20 00:33 -38.94671 -67.83109 4979 ft 235 kts 267°
2026-04-20 00:34 -38.94715 -67.85224 4668 ft 236 kts 270°
2026-04-20 00:34 -38.94761 -67.87304 4358 ft 229 kts 268°
2026-04-20 00:34 -38.94840 -67.89319 4063 ft 221 kts 268°
2026-04-20 00:34 -38.94913 -67.91237 3792 ft 210 kts 268°
2026-04-20 00:35 -38.94958 -67.93068 3663 ft 204 kts 271°
2026-04-20 00:35 -38.94965 -67.94866 3556 ft 198 kts 270°
2026-04-20 00:35 -38.94938 -67.96608 3355 ft 191 kts 274°
2026-04-20 00:35 -38.94923 -67.98278 3080 ft 185 kts 271°
2026-04-20 00:36 -38.94940 -67.99920 2806 ft 179 kts 270°
2026-04-20 00:36 -38.94920 -68.01468 2638 ft 168 kts 273°
2026-04-20 00:36 -38.94900 -68.02885 2436 ft 152 kts 270°
2026-04-20 00:36 -38.94932 -68.04220 2228 ft 147 kts 270°
2026-04-20 00:37 -38.94921 -68.05509 2083 ft 143 kts 272°
2026-04-20 00:37 -38.94920 -68.06791 1964 ft 143 kts 272°
2026-04-20 00:37 -38.94926 -68.08065 1795 ft 141 kts 271°
2026-04-20 00:37 -38.94904 -68.09305 1631 ft 136 kts 272°
2026-04-20 00:38 -38.94912 -68.10478 1465 ft 131 kts 270°
2026-04-20 00:38 -38.94901 -68.11641 1294 ft 129 kts 270°
2026-04-20 00:38 -38.94904 -68.12790 1144 ft 127 kts 270°
2026-04-20 00:38 -38.94903 -68.13934 972 ft 127 kts 270°
2026-04-20 00:39 -38.94902 -68.15007 892 ft 106 kts 271°
2026-04-20 00:39 -38.94899 -68.15702 896 ft 49 kts 270°
2026-04-20 00:39 -38.94895 -68.15961 898 ft 17 kts 281°
2026-04-20 00:39 -38.94895 -68.16041 898 ft 6 kts 188°
2026-04-20 00:40 -38.94900 -68.15957 898 ft 16 kts 83°
2026-04-20 00:40 -38.94902 -68.15721 896 ft 38 kts 92°
2026-04-20 00:40 -38.94903 -68.15334 893 ft 43 kts 91°
2026-04-20 00:40 -38.94938 -68.15085 892 ft 25 kts 133°
2026-04-20 00:41 -38.95058 -68.14935 893 ft 25 kts 135°
2026-04-20 00:41 -38.95091 -68.14734 892 ft 27 kts 90°
2026-04-20 00:41 -38.95093 -68.14477 892 ft 30 kts 90°
2026-04-20 00:41 -38.95095 -68.14216 891 ft 21 kts 90°
2026-04-20 00:42 -38.95098 -68.14103 891 ft 10 kts 116°
2026-04-20 00:42 -38.95137 -68.14117 891 ft 5 kts 253°
2026-04-20 00:42 -38.95143 -68.14132 891 ft 0 kts 227°